Estherville, IA

1:44 PM CDT on June 28, 2017 (GMT -0500)
Estherville Municipal

Weather History for KEST - July, 2012

Change the Weather History Date:

Monday, July 9, 2012

  Actual Average Record
Temperature  
Mean Temperature 72 °F 72 °F  
Max Temperature 85 °F 83 °F 97 °F (1989)
Min Temperature 59 °F 61 °F 48 °F (1950)
Degree Days  
Heating Degree Days 0 0  
Month to date heating degree days 0 0  
Since 1 June heating degree days 18 41  
Since 1 July heating degree days 0 0  
Cooling Degree Days 7 7  
Month to date cooling degree days 123 63  
Year to date cooling degree days 419 236  
Since 1 June cooling degree days 330 200  
Growing Degree Days 24 (Base 50)    
Moisture  
Dew Point 60 °F    
Average Humidity 67    
Maximum Humidity 90    
Minimum Humidity 38    
Precipitation  
Precipitation 0.00 in 0.13 in 2.50 in (1950)
Month to date precipitation T 1.16  
Year to date precipitation 15.47  
Sea Level Pressure  
Sea Level Pressure 30.13 in    
Wind  
Wind Speed 7 mph (North)    
Max Wind Speed 14 mph    
Max Gust Speed 18 mph    
Visibility 10 miles    
Events      
T = Trace of Precipitation, MM = Missing Value Source: NWS Daily Summary

Daily Weather History Graph

Daily Weather History Graph

Search for Another Location

Airport or City:

Trip Planner

Search our weather history database for the weather conditions in past years. The results will help you decide how hot, cold, wet, or windy it might be!

Date:

Astronomy

Jul. 09, 2012 Rise Set
Actual Time 5:47 AM CDT 9:00 PM CDT
Civil Twilight 5:12 AM CDT 9:35 PM CDT
Nautical Twilight 4:27 AM CDT 10:20 PM CDT
Astronomical Twilight 3:32 AM CDT 11:15 PM CDT
Moon No Moon Rise 12:29 PM CDT (7/9)
Length of Visible Light 16h 22m
Length of Day
15h 12m
Waning Gibbous, 63% of the Moon is Illuminated
Jul 9
Waning Gibbous
Jul 10
Last Quarter
Jul 18
New
Jul 26
First Quarter
Aug 1
Full

Hourly Weather History & Observations

Time (CDT) Temp. Heat Index Dew Point Humidity Pressure Visibility Wind Dir Wind Speed Gust Speed Precip Events Conditions
12:52 AM 66.0 °F - 61.0 °F 84% 30.14 in 10.0 mi NW 6.9 mph - N/A   Clear
1:52 AM 64.0 °F - 61.0 °F 90% 30.13 in 10.0 mi NW 8.1 mph - N/A   Clear
2:52 AM 64.0 °F - 61.0 °F 90% 30.12 in 10.0 mi NW 6.9 mph - N/A   Partly Cloudy
3:52 AM 64.0 °F - 61.0 °F 90% 30.12 in 10.0 mi NNW 3.5 mph - N/A   Clear
4:52 AM 64.0 °F - 61.0 °F 90% 30.12 in 10.0 mi NW 4.6 mph - N/A   Partly Cloudy
5:52 AM 64.0 °F - 61.0 °F 90% 30.13 in 10.0 mi NW 5.8 mph - N/A   Mostly Cloudy
6:52 AM 66.0 °F - 62.1 °F 87% 30.14 in 10.0 mi NW 3.5 mph - N/A   Overcast
7:52 AM 71.1 °F - 64.0 °F 78% 30.14 in 10.0 mi North 3.5 mph - N/A   Mostly Cloudy
8:52 AM 75.0 °F - 66.0 °F 73% 30.14 in 10.0 mi North 5.8 mph - N/A   Clear
9:52 AM 78.1 °F - 66.9 °F 68% 30.14 in 10.0 mi North 5.8 mph - N/A   Clear
10:52 AM 81.0 °F 83.0 °F 66.0 °F 60% 30.14 in 10.0 mi Variable 3.5 mph - N/A   Partly Cloudy
12:52 PM 82.0 °F 83.1 °F 63.0 °F 52% 30.14 in 10.0 mi NNE 9.2 mph - N/A   Mostly Cloudy
1:52 PM 82.0 °F 82.7 °F 61.0 °F 49% 30.13 in 10.0 mi NNE 10.4 mph 17.3 mph N/A   Mostly Cloudy
2:52 PM 84.0 °F 84.0 °F 60.1 °F 44% 30.12 in 10.0 mi North 13.8 mph 18.4 mph N/A   Partly Cloudy
3:52 PM 84.0 °F 83.3 °F 57.0 °F 40% 30.12 in 10.0 mi North 12.7 mph - N/A   Partly Cloudy
4:52 PM 82.0 °F 82.0 °F 57.9 °F 44% 30.12 in 10.0 mi North 12.7 mph - N/A   Mostly Cloudy
5:52 PM 82.0 °F 81.3 °F 54.0 °F 38% 30.12 in 10.0 mi North 12.7 mph - N/A   Clear
6:52 PM 80.1 °F 80.1 °F 55.0 °F 42% 30.11 in 10.0 mi NNE 11.5 mph - N/A   Clear
7:52 PM 77.0 °F - 57.0 °F 50% 30.11 in 10.0 mi NNE 5.8 mph - N/A   Clear
8:52 PM 70.0 °F - 55.9 °F 61% 30.11 in 10.0 mi North 4.6 mph - N/A   Clear
9:52 PM 66.9 °F - 57.0 °F 70% 30.12 in 10.0 mi North 4.6 mph - N/A   Clear
10:52 PM 64.0 °F - 55.9 °F 75% 30.14 in 10.0 mi North 4.6 mph - N/A   Clear
11:52 PM 62.1 °F - 55.0 °F 78% 30.14 in 10.0 mi North 3.5 mph - N/A   Clear